Location: Chequamegon National Forest
(46.1070°N, 90.8420°W)
Time: 05:31:24
(UTC-05:00)

Amateur Radio Satellites - All Passes

Search period start: 28 June 2017 05:01
Search period end: 29 June 2017 05:01
Location: Chequamegon National Forest, 46.1070°N, 90.8420°W

Satellite Date Start Highest point End Downlink Frequencies (MHz)
Time Altitude Azimuth
AO-7 28 Jun 05:04:02 05:12:29 86° 109° (ESE) 05:20:53 .
STARS 28 Jun 05:12:25 05:16:42 56° 72° (ENE) 05:21:03 437.465
ITAMSAT 1 28 Jun 05:31:11 05:36:05 41° 293° (WNW) 05:40:57 435.822/435.867
BEESAT 3 28 Jun 05:32:16 05:36:16 64° 237° (WSW) 05:40:11 437.485
AO-85 28 Jun 05:37:02 05:40:50 37° 241° (WSW) 05:44:52 145.980
DOVE 4 28 Jun 05:38:26 05:42:00 19° 91° (E) 05:45:38 437.250
RS-15 28 Jun 06:04:20 06:16:35 83° 237° (WSW) 06:28:10 29.354- 29.394
CUBESAT XI-V 28 Jun 06:05:07 06:07:59 16° 270° (W) 06:10:49 437.345
STRAND 1 28 Jun 06:09:58 06:13:24 18° 59° (ENE) 06:16:50 437.568
XW-2F 28 Jun 06:22:23 06:24:52 17° 92° (E) 06:27:19 145.980 - 146.000
XW-2D 28 Jun 06:28:07 06:31:02 21° 93° (E) 06:33:55 145.860 - 145.880
KKS-1 28 Jun 06:30:30 06:32:08 12° 272° (W) 06:33:47 437.445
O/OREOS (USA 219) 28 Jun 06:30:50 06:35:03 39° 58° (ENE) 06:39:15 437.305
XW-2B 28 Jun 06:37:01 06:40:11 25° 95° (E) 06:43:19 145.730 - 145.750
BEESAT 2 28 Jun 06:38:00 06:41:48 38° 242° (WSW) 06:45:33 435.950
LilacSat-2 28 Jun 06:39:41 06:43:01 29° 96° (E) 06:46:20 437.200
STARS 28 Jun 06:50:43 06:53:24 16° 269° (W) 06:56:07 437.465
XW-2C 28 Jun 06:52:23 06:55:56 38° 98° (E) 06:59:27 145.795 - 145.815
YUBILEINY 28 Jun 06:52:53 06:57:07 14° 50° (NE) 07:01:19 435.215
CUTE-I 28 Jun 06:55:02 07:00:02 38° 97° (E) 07:05:00 437.470
AO-7 28 Jun 06:57:44 07:04:21 27° 310° (NW) 07:10:58 .
KAITUO 1B 28 Jun 06:59:16 07:02:43 35° 97° (E) 07:06:07 145.475/437.950
DOVE 4 28 Jun 07:15:07 07:19:59 59° 287° (WNW) 07:25:03 437.250
Tancredo 1 28 Jun 07:25:09 07:27:46 27° 141° (SE) 07:30:24 437.200
NUDT-PHONESAT 28 Jun 07:30:33 07:34:16 85° 102° (ESE) 07:37:57 437.300
XW-2A 28 Jun 07:36:03 07:37:17 12° 90° (E) 07:38:32 145.665 - 145.685
CUBEBUG 2 28 Jun 07:38:10 07:40:20 13° 87° (E) 07:42:29 437.445
STRAND 1 28 Jun 07:46:53 07:52:01 72° 257° (WSW) 07:57:12 437.568
HO-68 28 Jun 07:52:57 07:59:35 38° 97° (E) 08:06:09 435.675
XW-2F 28 Jun 07:55:40 07:59:10 38° 289° (WNW) 08:02:38 145.980 - 146.000
XW-2D 28 Jun 08:01:55 08:05:16 30° 291° (WNW) 08:08:35 145.860 - 145.880
UWE-3 28 Jun 08:05:17 08:07:49 15° 88° (E) 08:10:17 435.000/436.395/437.385
SEEDS 28 Jun 08:07:39 08:11:15 28° 95° (E) 08:14:52 437.485
O/OREOS (USA 219) 28 Jun 08:10:39 08:14:15 24° 257° (WSW) 08:17:50 437.305
XW-2B 28 Jun 08:11:10 08:14:20 26° 292° (WNW) 08:17:26 145.730 - 145.750
LilacSat-2 28 Jun 08:14:10 08:17:11 23° 293° (WNW) 08:20:11 437.200
RS-15 28 Jun 08:18:32 08:27:05 24° 261° (W) 08:35:23 29.354- 29.394
ISS 28 Jun 08:19:07 08:22:15 44° 145° (SE) 08:25:24 437.550
FO-29 28 Jun 08:24:17 08:29:12 23° 54° (NE) 08:34:31 435.910
XW-2C 28 Jun 08:27:16 08:29:51 18° 295° (WNW) 08:32:25 145.795 - 145.815
CUTE 1.7 + AOD 2 28 Jun 08:30:30 08:34:44 78° 104° (ESE) 08:38:55 437.475
KAITUO 1B 28 Jun 08:33:52 08:36:29 18° 295° (WNW) 08:39:05 145.475/437.950
CUTE-I 28 Jun 08:35:13 08:40:01 34° 295° (WNW) 08:44:47 437.470
YUBILEINY 28 Jun 08:47:32 08:56:16 59° 75° (ENE) 09:04:53 435.215
AAUSAT CUBESAT 2 28 Jun 08:49:24 08:53:14 37° 97° (E) 08:57:04 437.432
AO-73 28 Jun 08:51:57 08:55:22 22° 92° (E) 08:58:42 145.935
Tancredo 1 28 Jun 09:00:15 09:03:12 51° 338° (NNW) 09:06:12 437.200
M-CUBED/EXP-1 PRIME 28 Jun 09:02:32 09:05:34 37° 65° (ENE) 09:08:38 437.505
TIGRISAT 28 Jun 09:05:45 09:09:15 22° 63° (ENE) 09:12:48 435.000
XW-2A 28 Jun 09:07:01 09:10:18 45° 287° (WNW) 09:13:33 145.665 - 145.685
CUBEBUG 2 28 Jun 09:12:48 09:17:31 76° 286° (WNW) 09:22:06 437.445
Oscar 11 28 Jun 09:15:09 09:18:53 28° 95° (E) 09:22:36 .
ZACube-1 28 Jun 09:28:12 09:32:36 56° 100° (E) 09:36:51 437.345
PRISM 28 Jun 09:38:06 09:41:56 42° 70° (ENE) 09:45:47 437.425
UWE-3 28 Jun 09:40:11 09:44:44 65° 287° (WNW) 09:49:09 435.000/436.395/437.385
HO-68 28 Jun 09:40:37 09:47:26 48° 296° (WNW) 09:54:12 435.675
SEEDS 28 Jun 09:43:20 09:46:54 28° 292° (WNW) 09:50:27 437.485
UNISAT 6 28 Jun 09:47:31 09:52:02 55° 72° (ENE) 09:56:39 437.425
DELFI C3 28 Jun 09:49:08 09:51:45 17° 92° (E) 09:54:23 145.870
ISS 28 Jun 09:55:37 09:58:46 42° 343° (NNW) 10:01:57 437.550
EO-88 28 Jun 10:02:55 10:05:04 15° 91° (E) 10:07:13 145.990 - 145.960
FO-29 28 Jun 10:07:03 10:13:19 81° 256° (WSW) 10:20:31 435.910
CUTE 1.7 + AOD 2 28 Jun 10:08:17 10:09:57 12° 300° (WNW) 10:11:38 437.475
AIST 2D 28 Jun 10:16:02 10:17:19 12° 63° (ENE) 10:18:36 435.315
AAUSAT CUBESAT 2 28 Jun 10:25:20 10:28:29 21° 295° (WNW) 10:31:38 437.432
AO-73 28 Jun 10:27:37 10:31:46 40° 290° (WNW) 10:35:49 145.935
EO-79 28 Jun 10:35:49 10:37:48 13° 59° (ENE) 10:39:46 145.935-145.965
Tancredo 1 28 Jun 10:36:32 10:39:12 27° 359° (N) 10:41:53 437.200
PCSat 28 Jun 10:37:26 10:40:03 14° 103° (ESE) 10:42:40 145.827
M-CUBED/EXP-1 PRIME 28 Jun 10:38:41 10:40:15 13° 262° (W) 10:41:50 437.505
TIGRISAT 28 Jun 10:41:06 10:45:36 49° 261° (W) 10:50:11 435.000
YUBILEINY 28 Jun 10:44:56 10:52:37 35° 277° (W) 11:00:15 435.215
DUCHIFAT 1 28 Jun 10:45:53 10:47:58 13° 60° (ENE) 10:50:01 145.980
Oscar 11 28 Jun 10:51:14 10:55:00 30° 292° (WNW) 10:58:44 .
CUBEBUG 2 28 Jun 10:52:08 10:53:16 11° 304° (NW) 10:54:23 437.445
NANOSAT C BR1 28 Jun 10:55:11 10:58:05 18° 63° (ENE) 11:01:01 145.865
ZACube-1 28 Jun 11:05:29 11:08:25 18° 298° (WNW) 11:11:19 437.345
PRISM 28 Jun 11:14:37 11:17:25 18° 268° (W) 11:20:13 437.425
DELFI C3 28 Jun 11:22:59 11:26:44 42° 289° (WNW) 11:30:28 145.870
UNISAT 6 28 Jun 11:25:53 11:29:05 18° 270° (W) 11:32:19 437.425
HO-68 28 Jun 11:31:14 11:33:28 12° 318° (NW) 11:35:41 435.675
ISS 28 Jun 11:32:48 11:35:45 30° 3° (N) 11:38:43 437.550
POLYITAN 1 28 Jun 11:34:28 11:38:34 47° 71° (ENE) 11:42:44 437.675
EO-88 28 Jun 11:35:30 11:38:57 40° 288° (WNW) 11:42:23 145.990 - 145.960
BUGSAT 1 28 Jun 11:42:34 11:45:09 16° 62° (ENE) 11:47:46 437.445
QB50P2 28 Jun 11:45:22 11:49:36 67° 74° (ENE) 11:53:52 145.880/145.840
AIST 2D 28 Jun 11:46:34 11:50:04 57° 260° (W) 11:53:35 435.315
LO-87 28 Jun 11:47:39 11:51:02 35° 97° (E) 11:54:24 145.935 - 145.965
FO-29 28 Jun 11:56:17 11:59:43 15° 278° (W) 12:03:20 435.910
ESTCUBE 1 28 Jun 12:02:31 12:06:33 32° 96° (E) 12:10:35 437.505/2401.250
EO-79 28 Jun 12:08:42 12:12:57 76° 257° (WSW) 12:17:16 145.935-145.965
Tancredo 1 28 Jun 12:12:18 12:15:14 44° 19° (NNE) 12:18:10 437.200
PCSat 28 Jun 12:17:11 12:22:37 87° 119° (ESE) 12:28:05 145.827
DUCHIFAT 1 28 Jun 12:18:49 12:23:03 73° 257° (WSW) 12:27:20 145.980
AO-7 28 Jun 12:29:17 12:31:14 11° 32° (NNE) 12:33:11 .
NANOSAT C BR1 28 Jun 12:29:18 12:33:26 50° 260° (W) 12:37:36 145.865
Gurwin Techsat 1B 28 Jun 12:30:17 12:33:37 17° 57° (ENE) 12:36:57 435.225
Oscar 19 28 Jun 12:48:59 12:53:36 34° 66° (ENE) 12:58:12 437.125/150
ISS 28 Jun 13:09:22 13:12:38 62° 23° (NNE) 13:15:55 437.550
POLYITAN 1 28 Jun 13:11:41 13:14:37 18° 268° (W) 13:17:35 437.675
BUGSAT 1 28 Jun 13:15:59 13:20:04 56° 259° (W) 13:24:14 437.445
LO-87 28 Jun 13:21:41 13:24:14 18° 294° (WNW) 13:26:46 145.935 - 145.965
SPROUT 28 Jun 13:22:39 13:26:56 60° 101° (E) 13:31:11 437.525
QB50P2 28 Jun 13:23:56 13:25:50 13° 271° (W) 13:27:46 145.880/145.840
VELOX 1 28 Jun 13:26:11 13:30:34 57° 101° (E) 13:34:56 145.980
DX 1 28 Jun 13:35:40 13:39:17 25° 95° (E) 13:42:53 434.975-435.025
ESTCUBE 1 28 Jun 13:39:26 13:43:17 28° 294° (WNW) 13:47:06 437.505/2401.250
UKube-1 28 Jun 13:46:15 13:49:36 22° 94° (E) 13:52:56 .
Tancredo 1 28 Jun 13:47:57 13:50:47 35° 216° (SW) 13:53:35 437.200
PCSat 28 Jun 14:02:36 14:06:45 21° 323° (NW) 14:10:53 145.827
Gurwin Techsat 1B 28 Jun 14:07:35 14:12:54 81° 256° (WSW) 14:18:16 435.225
50 SAT 28 Jun 14:13:40 14:17:06 79° 285° (WNW) 14:20:30 437.505
AO-7 28 Jun 14:14:11 14:21:36 38° 56° (NE) 14:29:03 .
SO-50 28 Jun 14:18:07 14:22:39 74° 124° (SE) 14:27:10 436.795
Oscar 19 28 Jun 14:28:14 14:32:53 34° 264° (W) 14:37:34 437.125/150
ISS 28 Jun 14:46:11 14:48:55 24° 221° (SW) 14:51:39 437.550
BEESAT 28 Jun 14:52:58 14:54:46 12° 88° (E) 14:56:33 436.000
SPROUT 28 Jun 14:59:45 15:02:23 16° 299° (WNW) 15:05:00 437.525
VELOX 1 28 Jun 15:03:40 15:06:35 17° 299° (WNW) 15:09:30 145.980
DX 1 28 Jun 15:11:33 15:15:32 36° 292° (WNW) 15:19:32 434.975-435.025
ITAMSAT 1 28 Jun 15:12:09 15:17:15 58° 70° (ENE) 15:22:23 435.822/435.867
UKube-1 28 Jun 15:21:43 15:25:46 40° 291° (WNW) 15:29:48 .
MOZHAYETS 4 28 Jun 15:30:29 15:33:43 19° 91° (E) 15:36:57
Gurwin Techsat 1B 28 Jun 15:52:12 15:53:42 11° 274° (W) 15:55:12 435.225
SO-50 28 Jun 16:00:07 16:03:35 21° 324° (NW) 16:07:04 436.795
AO-7 28 Jun 16:05:49 16:14:01 60° 257° (WSW) 16:22:18 .
ITUPSAT 1 28 Jun 16:20:40 16:25:30 81° 105° (ESE) 16:30:16 437.325
CUBESAT XI-V 28 Jun 16:21:26 16:23:18 12° 88° (E) 16:25:11 437.345
BEESAT 28 Jun 16:28:21 16:33:11 85° 286° (WNW) 16:37:57 436.000
KKS-1 28 Jun 16:40:52 16:42:40 12° 89° (E) 16:44:28 437.445
CUTE-I 28 Jun 16:42:57 16:45:24 13° 54° (NE) 16:47:52 437.470
DOVE 4 28 Jun 16:46:57 16:50:08 21° 63° (ENE) 16:53:27 437.250
ITAMSAT 1 28 Jun 16:53:15 16:57:05 20° 268° (W) 17:00:57 435.822/435.867
XW-2F 28 Jun 17:06:28 17:08:19 13° 62° (ENE) 17:10:09 145.980 - 146.000
MOZHAYETS 4 28 Jun 17:06:44 17:11:10 50° 289° (WNW) 17:15:34
XW-2D 28 Jun 17:12:16 17:14:41 16° 64° (ENE) 17:17:06 145.860 - 145.880
XW-2B 28 Jun 17:20:58 17:23:43 19° 66° (ENE) 17:26:30 145.730 - 145.750
LilacSat-2 28 Jun 17:24:06 17:27:07 22° 67° (ENE) 17:30:08 437.200
XW-2C 28 Jun 17:36:00 17:39:18 28° 68° (ENE) 17:42:36 145.795 - 145.815
KAITUO 1B 28 Jun 17:41:43 17:44:50 25° 68° (ENE) 17:47:57 145.475/437.950
CUBESAT XI-V 28 Jun 17:56:38 18:01:14 78° 286° (WNW) 18:05:50 437.345
ITUPSAT 1 28 Jun 18:00:02 18:02:40 15° 302° (WNW) 18:05:17 437.325
AO-7 28 Jun 18:06:07 18:08:33 11° 277° (W) 18:10:59 .
BEESAT 28 Jun 18:08:13 18:10:11 12° 304° (NW) 18:12:09 436.000
NUDT-PHONESAT 28 Jun 18:11:44 18:15:23 53° 74° (ENE) 18:19:04 437.300
KKS-1 28 Jun 18:15:15 18:19:45 76° 286° (WNW) 18:24:14 437.445
CUTE-I 28 Jun 18:19:15 18:24:34 77° 73° (ENE) 18:29:57 437.470
DOVE 4 28 Jun 18:23:37 18:27:35 40° 263° (W) 18:31:44 437.250
HO-68 28 Jun 18:24:16 18:30:46 38° 61° (ENE) 18:37:16 435.675
RS-15 28 Jun 18:29:07 18:31:31 11° 89° (E) 18:33:56 29.354- 29.394
STARS 28 Jun 18:35:08 18:39:36 77° 103° (ESE) 18:44:02 437.465
XW-2F 28 Jun 18:38:14 18:41:59 58° 259° (W) 18:45:46 145.980 - 146.000
CUBEBUG 2 28 Jun 18:38:17 18:41:10 16° 60° (ENE) 18:44:03 437.445
XW-2D 28 Jun 18:44:51 18:48:32 44° 262° (W) 18:52:14 145.860 - 145.880
XW-2B 28 Jun 18:54:07 18:57:41 36° 263° (W) 19:01:15 145.730 - 145.750
LilacSat-2 28 Jun 18:57:46 19:01:14 31° 263° (W) 19:04:43 437.200
SEEDS 28 Jun 19:01:36 19:05:10 27° 67° (ENE) 19:08:43 437.485
UWE-3 28 Jun 19:04:19 19:07:25 18° 61° (ENE) 19:10:31 435.000/436.395/437.385
XW-2C 28 Jun 19:10:18 19:13:28 24° 265° (W) 19:16:39 145.795 - 145.815
KAITUO 1B 28 Jun 19:15:33 19:18:45 26° 265° (W) 19:21:59 145.475/437.950
PCSat 28 Jun 19:19:44 19:24:13 25° 41° (NE) 19:28:40 145.827
CUTE 1.7 + AOD 2 28 Jun 19:25:05 19:29:19 74° 74° (ENE) 19:33:33 437.475
BEESAT 3 28 Jun 19:27:09 19:27:59 11° 108° (ESE) 19:28:49 437.485
CUBESAT XI-V 28 Jun 19:36:50 19:37:49 11° 304° (WNW) 19:38:48 437.345
XW-2A 28 Jun 19:39:59 19:43:26 82° 76° (ENE) 19:46:54 145.665 - 145.685
AAUSAT CUBESAT 2 28 Jun 19:41:42 19:45:26 34° 69° (ENE) 19:49:09 437.432
NUDT-PHONESAT 28 Jun 19:47:58 19:49:36 12° 270° (W) 19:51:16 437.300
AO-73 28 Jun 19:49:25 19:53:06 25° 65° (ENE) 19:56:48 145.935
AO-85 28 Jun 19:53:53 19:57:31 32° 118° (ESE) 20:01:04 145.980
KKS-1 28 Jun 19:54:52 19:55:30 10° 304° (NW) 19:56:08 437.445
STRAND 1 28 Jun 19:55:02 19:59:40 32° 96° (E) 20:04:15 437.568
YUBILEINY 28 Jun 20:01:59 20:04:57 12° 70° (ENE) 20:07:54 435.215
CUTE-I 28 Jun 20:02:07 20:05:13 16° 271° (W) 20:08:23 437.470
NO-84 28 Jun 20:10:27 20:12:32 14° 124° (SE) 20:14:43 435.350 FM
HO-68 28 Jun 20:11:23 20:18:19 50° 260° (W) 20:25:18 435.675
Oscar 11 28 Jun 20:12:09 20:15:56 30° 68° (ENE) 20:19:44 .
CUBEBUG 2 28 Jun 20:12:34 20:17:11 70° 258° (WSW) 20:21:57 437.445
STARS 28 Jun 20:13:07 20:15:20 14° 301° (WNW) 20:17:34 437.465
ZACube-1 28 Jun 20:25:38 20:30:08 59° 73° (ENE) 20:34:39 437.345
RS-15 28 Jun 20:29:15 20:40:48 53° 112° (ESE) 20:52:33 29.354- 29.394
BEESAT 2 28 Jun 20:32:05 20:34:53 19° 112° (ESE) 20:37:43 435.950
SEEDS 28 Jun 20:37:06 20:40:47 29° 265° (W) 20:44:28 437.485
DELFI C3 28 Jun 20:37:31 20:39:43 15° 63° (ENE) 20:41:56 145.870
UWE-3 28 Jun 20:38:48 20:43:22 62° 259° (W) 20:48:02 435.000/436.395/437.385
EO-88 28 Jun 20:44:31 20:45:29 11° 61° (ENE) 20:46:27 145.990 - 145.960
O/OREOS (USA 219) 28 Jun 20:46:03 20:49:52 27° 104° (ESE) 20:53:41 437.305
BEESAT 3 28 Jun 21:00:54 21:04:53 85° 303° (WNW) 21:08:57 437.485
PCSat 28 Jun 21:02:42 21:08:07 70° 241° (WSW) 21:13:30 145.827
CUTE 1.7 + AOD 2 28 Jun 21:04:19 21:05:38 11° 272° (W) 21:06:59 437.475
SO-50 28 Jun 21:07:04 21:10:45 24° 38° (NE) 21:14:26 436.795
FO-29 28 Jun 21:14:46 21:19:45 18° 84° (E) 21:24:39 435.910
AAUSAT CUBESAT 2 28 Jun 21:17:41 21:20:57 23° 267° (W) 21:24:15 437.432
AO-73 28 Jun 21:24:49 21:29:07 40° 263° (W) 21:33:26 145.935
STRAND 1 28 Jun 21:34:09 21:38:51 36° 294° (WNW) 21:43:31 437.568
AO-85 28 Jun 21:34:23 21:37:55 29° 317° (NW) 21:41:23 145.980
NO-84 28 Jun 21:45:33 21:49:28 86° 140° (SE) 21:53:41 435.350 FM
Oscar 11 28 Jun 21:48:17 21:52:03 28° 265° (W) 21:55:50 .
YUBILEINY 28 Jun 21:51:09 21:59:45 61° 91° (E) 22:08:25 435.215
ZACube-1 28 Jun 22:03:53 22:06:47 16° 270° (W) 22:09:41 437.345
BEESAT 2 28 Jun 22:08:23 22:12:17 50° 311° (NW) 22:16:15 435.950
DELFI C3 28 Jun 22:10:15 22:14:05 53° 260° (W) 22:17:56 145.870
M-CUBED/EXP-1 PRIME 28 Jun 22:11:57 22:14:53 21° 101° (E) 22:17:58 437.505
EO-88 28 Jun 22:14:58 22:18:37 68° 258° (WSW) 22:22:18 145.990 - 145.960
O/OREOS (USA 219) 28 Jun 22:24:57 22:29:08 36° 302° (WNW) 22:33:19 437.305
LO-87 28 Jun 22:26:25 22:29:12 22° 67° (ENE) 22:32:00 145.935 - 145.965
TIGRISAT 28 Jun 22:30:15 22:34:20 30° 95° (E) 22:38:19 435.000
BEESAT 3 28 Jun 22:40:39 22:43:06 15° 326° (NW) 22:45:34 437.485
RS-15 28 Jun 22:41:11 22:53:18 60° 318° (NW) 23:05:32 29.354- 29.394
SO-50 28 Jun 22:47:05 22:51:34 61° 237° (WSW) 22:56:03 436.795
PCSat 28 Jun 22:50:09 22:50:29 10° 259° (W) 22:50:49 145.827
PRISM 28 Jun 22:51:37 22:55:37 48° 100° (E) 22:59:37 437.425
FO-29 28 Jun 22:57:58 23:05:52 79° 103° (ESE) 23:13:37 435.910
ESTCUBE 1 28 Jun 23:04:11 23:08:22 40° 69° (ENE) 23:12:35 437.505/2401.250
UNISAT 6 28 Jun 23:13:07 23:17:49 85° 103° (ESE) 23:22:22 437.425
NO-84 28 Jun 23:23:48 23:27:28 31° 344° (NNW) 23:31:19 435.350 FM
M-CUBED/EXP-1 PRIME 28 Jun 23:45:54 23:49:23 36° 295° (WNW) 23:53:07 437.505
YUBILEINY 28 Jun 23:49:15 23:57:04 35° 294° (WNW) 00:04:59 435.215
BEESAT 2 28 Jun 23:49:38 23:51:00 11° 332° (NNW) 23:52:21 435.950
EO-79 28 Jun 23:52:03 23:54:31 15° 90° (E) 23:56:57 145.935-145.965
LO-87 28 Jun 23:59:25 00:02:30 27° 264° (W) 00:05:38 145.935 - 145.965
DUCHIFAT 1 29 Jun 00:01:27 00:03:56 15° 90° (E) 00:06:24 145.980
TIGRISAT 29 Jun 00:06:51 00:11:00 32° 293° (WNW) 00:15:03 435.000
NANOSAT C BR1 29 Jun 00:11:27 00:14:45 21° 93° (E) 00:18:00 145.865
SPROUT 29 Jun 00:17:58 00:22:11 61° 73° (ENE) 00:26:26 437.525
VELOX 1 29 Jun 00:25:30 00:29:50 69° 74° (ENE) 00:34:13 145.980
PRISM 29 Jun 00:27:47 00:30:33 18° 297° (WNW) 00:33:19 437.425
DX 1 29 Jun 00:33:26 00:37:12 30° 66° (ENE) 00:40:58 434.975-435.025
ESTCUBE 1 29 Jun 00:41:46 00:45:19 23° 267° (W) 00:48:53 437.505/2401.250
AIST 2D 29 Jun 00:42:08 00:45:38 66° 285° (WNW) 00:49:04 435.315
UKube-1 29 Jun 00:42:57 00:46:30 26° 65° (ENE) 00:50:05 .
FO-29 29 Jun 00:43:49 00:50:07 28° 303° (WNW) 00:56:24 435.910
50 SAT 29 Jun 00:47:30 00:50:47 51° 74° (ENE) 00:54:05 437.505
UNISAT 6 29 Jun 00:51:38 00:53:49 13° 302° (WNW) 00:55:58 437.425
POLYITAN 1 29 Jun 00:52:09 00:56:25 62° 101° (E) 01:00:38 437.675
BUGSAT 1 29 Jun 00:55:55 00:58:50 18° 92° (E) 01:01:43 437.445
RS-15 29 Jun 00:58:12 01:09:02 33° 349° (N) 01:19:45 29.354- 29.394
NO-84 29 Jun 01:02:28 01:06:01 25° 5° (N) 01:09:40 435.350 FM
QB50P2 29 Jun 01:03:13 01:07:32 89° 106° (ESE) 01:11:48 145.880/145.840
EO-79 29 Jun 01:26:26 01:30:39 57° 288° (WNW) 01:34:49 145.935-145.965
DUCHIFAT 1 29 Jun 01:35:47 01:39:57 56° 288° (WNW) 01:44:05 145.980
NANOSAT C BR1 29 Jun 01:46:37 01:50:36 39° 290° (WNW) 01:54:32 145.865
ITUPSAT 1 29 Jun 01:53:59 01:57:08 18° 60° (ENE) 02:00:17 437.325
SPROUT 29 Jun 01:56:14 01:58:30 14° 271° (W) 02:00:46 437.525
BEESAT 29 Jun 02:00:56 02:04:25 20° 61° (ENE) 02:07:54 436.000
VELOX 1 29 Jun 02:04:45 02:06:47 13° 271° (W) 02:08:48 145.980
DX 1 29 Jun 02:09:34 02:13:20 29° 264° (W) 02:17:09 434.975-435.025
UKube-1 29 Jun 02:18:30 02:22:24 33° 263° (W) 02:26:20 .
Gurwin Techsat 1B 29 Jun 02:21:28 02:26:15 33° 96° (E) 02:31:01 435.225
50 SAT 29 Jun 02:23:31 02:23:54 10° 270° (W) 02:24:17 437.505
POLYITAN 1 29 Jun 02:29:14 02:31:43 15° 299° (WNW) 02:34:12 437.675
BUGSAT 1 29 Jun 02:30:20 02:34:26 47° 289° (WNW) 02:38:29 437.445
MOZHAYETS 4 29 Jun 02:34:30 02:38:16 25° 65° (ENE) 02:42:03
Oscar 19 29 Jun 02:36:24 02:41:31 69° 102° (ESE) 02:46:38 437.125/150
NO-84 29 Jun 02:40:12 02:44:24 46° 26° (NNE) 02:48:38 435.350 FM
QB50P2 29 Jun 02:41:19 02:42:38 11° 302° (WNW) 02:43:56 145.880/145.840
AO-85 29 Jun 02:42:46 02:44:37 13° 31° (NNE) 02:46:29 145.980
RS-15 29 Jun 03:14:41 03:25:58 38° 23° (NNE) 03:36:50 29.354- 29.394
ITAMSAT 1 29 Jun 03:23:34 03:26:51 16° 90° (E) 03:30:06 435.822/435.867
CUBESAT XI-V 29 Jun 03:26:42 03:29:45 18° 61° (ENE) 03:32:48 437.345
ITUPSAT 1 29 Jun 03:29:39 03:34:26 67° 258° (WSW) 03:39:16 437.325
BEESAT 29 Jun 03:37:06 03:41:48 55° 259° (W) 03:46:32 436.000
BEESAT 3 29 Jun 03:38:29 03:41:29 19° 38° (NE) 03:44:26 437.485
KKS-1 29 Jun 03:40:55 03:43:44 17° 61° (ENE) 03:46:35 437.445
STARS 29 Jun 04:00:49 04:02:30 12° 57° (ENE) 04:04:12 437.465
Gurwin Techsat 1B 29 Jun 04:01:21 04:06:13 37° 294° (WNW) 04:11:04 435.225
AO-7 29 Jun 04:04:27 04:12:16 41° 98° (E) 04:20:02 .
MOZHAYETS 4 29 Jun 04:10:52 04:15:14 40° 262° (W) 04:19:36
Oscar 19 29 Jun 04:16:51 04:20:19 19° 301° (WNW) 04:23:48 437.125/150
NO-84 29 Jun 04:17:52 04:22:02 43° 225° (SW) 04:26:08 435.350 FM
AO-85 29 Jun 04:21:43 04:25:46 63° 51° (NE) 04:30:03 145.980
BEESAT 2 29 Jun 04:46:11 04:49:47 29° 43° (NE) 04:53:21 435.950
